Location: Augirein
(42.9320°N, 0.9181°E)
Time: 20:24:22
(UTC+00:00)

Helios 1B rocket - Pass Details

Date: 20 June 2021
Orbit: 573 x 583 km, 98.2° (Epoch: 23 July)

Event Time Altitude Azimuth Distance (km) Brightness Sun altitude
Rises 00:47:07 0° 29° (NNE) 2,794 7.2 -22.7°
Reaches altitude 10° 00:49:50 10° 48° (NE) 1,888 5.8 -22.6°
Maximum altitude 00:52:43 18° 93° (E) 1,417 4.5 -22.4°
Enters shadow 00:53:36 17° 110° (ESE) 1,465 4.4 -22.4°
